User: anonymous   Login
Location: Oshawa
(43.9000°N, 78.8670°W)
Time: 05:29:44
(UTC-05:00)
Language:

PAYLOAD A - Orbit

View from above orbital plane
View from above orbital plane
View from above satellite
View from above satellite

Ground track
Ground track

The orbit data is extracted from the following two-line orbital elements,

1 27840U 03031A   14351.54005145  .00000164  00000-0  63984-4 0  7236
2 27840 098.2204 012.6826 0097879 350.7953 163.7094 14.38755907602079
Epoch (UTC): 17 December 2014 12:57:40
Eccentricity: 0.0097879
inclination: 98.2204°
perigee height: 693 km
apogee height: 832 km
right ascension of ascending node: 12.6826°
argument of perigee: 350.7953°
revolutions per day: 14.38755907
mean anomaly at epoch: 163.7094°
orbit number at epoch: 60207

The dashed part of the orbit path shows where the satellite is in the earth's shadow,  

DLR